Regional Weather Roundup
Issued by NWS Wakefield, VA

Home | Current Version | Previous Version | Graphics & Text | Print | Product List | Glossary On
Versions: 1 2 3 4 5 6 7 8 9 10 11 12 13 14 15 16 17 18 19 20 21 22 23 24 25 26 27 28
000
ASUS41 KAKQ 260115
RWRAKQ

REGIONAL WEATHER ROUNDUP
NATIONAL WEATHER SERVICE WAKEFIELD VA
900 PM EDT SUN SEP 25 2016

Note: "fair" indicates few or no clouds below 12,000 feet with no
significant weather and/or obstructions to visibility. * = Denotes
station may not report precipitation (e.g., rain,snow,etc.),
thunder or fog.

VAZ042-051-052>054-056-260200-
NORTHERN VIRGINIA

CITY           SKY/WX    TMP DP  RH WIND       PRES   REMARKS
WASH NATIONAL  MOCLDY    66  51  58 SE8       30.17R
DULLES         PTCLDY    60  51  72 CALM      30.16R
FORT BELVOIR   CLOUDY    61  57  87 SE2       30.16R
QUANTICO         N/A     63  60  90 NW6       30.17R
FREDERICKSBRG* PTCLDY    60  60 100 CALM      30.16R
STAFFORD*      MOCLDY    57  57 100 NW3       30.20S
WARRENTON      MOCLDY    59  53  79 CALM      30.17R
CULPEPER*      CLOUDY    61  58  90 CALM      30.18R
MANASSAS*      PTCLDY    59  57  94 CALM      30.17R
LEESBURG*      CLOUDY    61  55  82 W3        30.18R
WINCHESTER     CLOUDY    55  52  88 CALM      30.16R
FRONT ROYAL*   FAIR      55  55 100 CALM      30.15R
LURAY*         CLOUDY    63  61  94 CALM      30.16R
$$

VAZ048-049-060>072-079>083-260200-
CENTRAL AND SOUTH CENTRAL VIRGINIA

CITY           SKY/WX    TMP DP  RH WIND       PRES   REMARKS
RICHMOND       CLOUDY    67  60  78 E5        30.16R
CHESTERFIELD*  NOT AVBL
PETERSBURG*    CLOUDY    68  64  88 CALM      30.16S
HANOVER        CLOUDY    66  59  78 E3        30.17R
TAPPAHANNOCK*  PTCLDY    60  60 100 CALM      30.17R
QUINTON*       CLOUDY    66  58  75 SE5       30.16R
CHARLOTTSVILLE CLOUDY    65  57  75 CALM      30.16S
GORDONSVILLE*  CLOUDY    63  61  94 CALM      30.16R
ORANGE*          N/A     63  61  94 CALM      30.18S
LOUISA*        CLOUDY    66  63  88 CALM      30.16R
BUMPASS*       CLOUDY    64  61  90 CALM      30.16R
FARMVILLE*     CLOUDY    69  64  86 CALM      30.15R
CREWE*         CLOUDY    66  66 100 CALM      30.16R
FORT PICKETT*  CLOUDY    67  65  93 S6        30.15S
CHASE CITY*    CLOUDY    67  62  84 CALM      30.15R
CLARKSVILLE*   CLOUDY    68  64  88 E3        30.15R
SOUTH HILL*    CLOUDY    66  62  88 CALM      30.21R
LAWRENCEVILLE* CLOUDY    67  60  78 CALM      30.16R
EMPORIA*       CLOUDY    64  61  88 CALM      30.18R
$$

VAZ088>098-260200-
SOUTHEAST VIRGINIA

CITY           SKY/WX    TMP DP  RH WIND       PRES   REMARKS
NORFOLK        CLEAR     66  57  72 SE3       30.16R
VIRGINIA BEACH PTCLDY    62  56  80 CALM      30.15R
NORFOLK NAVAL  PTCLDY    64  57  78 SE3       30.17R
WEST POINT*    CLEAR     60  55  82 CALM      30.18R
SALUDA*        FAIR      61  55  81 CALM      30.16R
NEWPORT NEWS   CLEAR     63  58  83 CALM      30.16R
LANGLEY AFB    CLEAR     62  57  83 E3        30.15R
FORT EUSTIS    CLOUDY    68  55  63 E2        30.14R
WILLIAMSBURG*  PTCLDY    66  59  77 CALM      30.17R
HR EXEC AP*    NOT AVBL
FRANKLIN*      CLOUDY    66  61  84 CALM      30.16S
US460-WAKEFLD  CLOUDY    67  61  81 CALM      30.16R
$$

VAZ020-022-025-037-045-260200-
WEST CENTRAL AND SOUTHWEST VIRGINIA

CITY           SKY/WX    TMP DP  RH WIND       PRES   REMARKS
STAUNTON*      CLOUDY    63  59  87 SW3       30.18S
WAYNESBORO*    CLOUDY    62  58  86 CALM      30.17S
HOT SPRINGS VA RAIN      53  53 100 CALM      30.22R VSB<1/4
LYNCHBURG      CLOUDY    67  61  81 E5        30.18R
DANVILLE       CLOUDY    69  66  90 E3        30.15R
SOUTH BOSTON*  CLOUDY    69  65  88 CALM      30.15R
MARTINSVILLE   CLOUDY    66  65  97 CALM      30.18R FOG
ROANOKE        CLOUDY    68  61  78 SE6       30.19R
BLACKSBURG     CLOUDY    67  65  95 E7        30.21R FOG
DUBLIN*        MOCLDY    67  65  93 E6        30.19R
MARION*        PTCLDY    69  65  86 CALM      30.20R
HILLSVILLE*    CLOUDY    67  66  97 CALM      30.19R
RICHLANDS*     FAIR      73  63  71 CALM      30.17R
WISE*          CLEAR     72  55  56 CALM      30.17R
ABINGDON*      PTCLDY    74  65  75 CALM      30.13R
$$

MDZ021>025-VAZ099-100-260200-
SOUTHERN MARYLAND AND THE DELMARVA PENINSULA

CITY           SKY/WX    TMP DP  RH WIND       PRES   REMARKS
PATUXENT RIVER CLEAR     57  53  86 W3        30.17R
BAY BRIDGE APT CLEAR     59  52  77 MISG      30.17R
LEONARDTOWN    CLEAR     55  52  88 CALM      30.19R
DOVER          PTCLDY    58  53  81 S5        30.16R
GEORGETOWN     CLEAR     56  49  77 CALM      30.19R
EASTON         CLEAR     59  50  72 CALM      30.20R
CAMBRIDGE      PTCLDY    55  52  88 CALM      30.17R
SALISBURY      CLEAR     59  55  87 CALM      30.18R
OCEAN CITY     CLEAR     58  54  86 CALM      30.18R
WALLOPS ISLAND CLEAR     65  55  70 E6        30.18R
ACCOMACK*      CLEAR     60  56  88 CALM      30.17R
$$

NCZ012>017-030>032-260200-
NORTH CENTRAL AND EASTERN NORTH CAROLINA

CITY           SKY/WX    TMP DP  RH WIND       PRES   REMARKS
ROANOKE RAPIDS CLOUDY    64  63  94 CALM      30.16R
RALEIGH        CLOUDY    70  65  84 E6        30.15R
ELIZABETH CITY MOCLDY    67  58  72 E6        30.17R
AHOSKIE*       PTCLDY    65  62  91 CALM      30.16R
EDENTON*       CLOUDY    69  58  69 E5        30.17R
CURRITUCK*     CLEAR     65  59  82 CALM      30.17R
KILL DEVIL HLS NOT AVBL
MANTEO         CLEAR     67  56  70 NE7       30.16R
CAPE HATTERAS  MOCLDY    70  57  63 NE6       30.15R
TARBORO*       CLOUDY    69  65  88 CALM      30.16R
GOLDSBORO      CLOUDY    69  66  89 E8        30.13R
WASHINGTON     PTCLDY    65  63  92 CALM      30.16R
GREENVILLE     PTCLDY    68  63  83 E3        30.16R
NEW BERN       CLOUDY    70  60  70 E9        30.16R
WILMINGTON     CLOUDY    72  63  73 NE9       30.13R
$$

VAZ048-260200-
ELSEWHERE

CITY           SKY/WX    TMP DP  RH WIND       PRES   REMARKS
HARRISBURG PA  MOCLDY    59  50  72 E3        30.15R
BALTIMORE      PTCLDY    58  49  72 CALM      30.17R
ANNAPOLIS      PTCLDY    64  53  67 CALM      30.16R
ANDREWS AFB    CLEAR     60  50  70 S1        30.16R
PHILADELPHIA   PTCLDY    69  41  36 NW6       30.16S
HENDERSON NC   MOCLDY    65  62  89 CALM      30.16R
GREENSBORO     CLOUDY    69  69 100 E6        30.14R FOG
ROCKY MOUNT    CLOUDY    69  65  86 CALM      30.15R
$$

VAZ100-260200-
MARINE

STATION/POSITION TIME  TEMP    WIND        PRES    WAVE   SWELL
                       AIR SEA DIR/SP/G            HT/PER HT/PER
                 (UTC) (F)     (DEG/KT/KT) (MB)    (FT/S) (FT/S)
BRANDYWINE LGT   0000   67     210/  3/  4   N/A
CAPE MAY NJ      0000   62 73  110/  3/  4 1021.2R
LEWES DE         0000   64 74  130/  3/  3 1021.3R
OCEAN-CITY-INLET 0000   66 73  100/  3/  4 1021.9R
WACHAPREAGUE VA  0000   68 76   90/  3/  4 1021.3R
THOMAS POINT MD  0100   69 75  130/  3/  4 1022.9R
GOOSES REEF MD   0000   70 76   70/  4/  4 1021.7S   0
COVE POINT MD    0000   68      90/  5/  7 1021.6S
SOLOMONS ISLAND  0000   67 76   10/  3/  4   N/A
BISHOPS HEAD MD  0000   67 74  350/  3/  5 1021.3R
PINEY POINT MD   0000           80/  3/  4   N/A
POTOMAC MD       0000   70 76  360/  4/  6 1020.1R   0
CAMBRIDGE MD     0000   66 75     CALM     1020.5R
LEWISETTA VA     0000   69 75  140/  3/  3 1020.6S
RAPPAHANNOCK LGT 0000          360/  5/  5 1021.6R
STINGRAY PT      0000   71 77  350/  6/  8 1021.3R   1
YORK RVR RNG VA  0000   71      60/  8/ 10 1020.4R
YORKTOWN VA      0000   70 77   40/  6/  8 1020.6R
JAMESTOWN VA     0000   69 78   70/  4/  6   N/A     0
DOMINION TERM VA 0000   71      40/  3/  4 1020.9R
KIPTOPEKE VA     0000      78   80/  5/  5   N/A
CHES BAY BRIDGE  0000   70 77   30/  5/  7 1020.6S
CAPE HENRY VA    0000   70      70/  7/  8   N/A
WILLOUBY STN VA  0000   71      30/  3/  5   N/A
CAPE HENRY BUOY  0012      76                N/A     3/10   2/11
1ST LANDING BUOY 0000   70 76   80/  4/  6 1020.6R   2/ 4
CAPE CHARLES BUO 0026      76                N/A     3/10   2/11
OFFSHORE WE BUOY 0021      76                N/A     4/10   2/11
64NM E OF VA BCH 0050   70 76   30/ 10/ 16 1020.8R   4/ 8   3/ 8
DUCK PIER NC     0000   70 77   50/ 10/ 13 1020.2R
44056 DUCK FRF   0011      76                N/A     4/11   2/11
OREGON INLET NC  0000   70 77   30/  9/ 11 1020.5R
HATTERAS NC      0000   71 79   40/  8/ 12 1019.8R
DIAMOND SHLS NC  0050   74 85   40/ 16/ 19 1020.0R   4/ 8   2/ 8
CAPE LOOKOUT NC  0100   74      50/ 17/ 20 1020.4R
$$




USA.gov is the U.S. government's official web portal to all federal, state and local government web resources and services.